Weather History for Valdosta Regional, GA

Change the Weather History Date:

Tuesday, October 15, 2013

  Actual Average Record
Temperature  
Mean Temperature 74 °F 69 °F  
Max Temperature 81 °F 81 °F 89 °F (2011)
Min Temperature 67 °F 57 °F 43 °F (2006)
Degree Days  
Heating Degree Days 0 1  
Month to date heating degree days 0 5  
Since 1 July heating degree days 0 6  
Cooling Degree Days 9 5  
Month to date cooling degree days 162 98  
Year to date cooling degree days 2890 2323  
Growing Degree Days 22 (Base 50)    
Moisture  
Dew Point 62 °F    
Average Humidity 71    
Maximum Humidity 87    
Minimum Humidity 54    
Precipitation  
Precipitation T in 0.11 in 1.56 in (2004)
Month to date precipitation 0.01 1.53  
Year to date precipitation 36.01 43.20  
Sea Level Pressure  
Sea Level Pressure 30.06 in    
Wind  
Wind Speed 7 mph (NNE)    
Max Wind Speed 14 mph    
Max Gust Speed 20 mph    
Visibility 10 miles    
Events      
T = Trace of Precipitation, MM = Missing Value Source: NWS Daily Summary

Daily Weather History Graph

Daily Weather History Graph

Search for Another Location

Airport:

Trip Planner

Search our weather history database for the weather conditions in past years. The results will help you decide how hot, cold, wet, or windy it might be!

Date:

Astronomy

Oct. 15, 2013 Rise Set
Actual Time 7:35 AM EDT 7:01 PM EDT
Civil Twilight 7:11 AM EDT 7:25 PM EDT
Nautical Twilight 6:43 AM EDT 7:53 PM EDT
Astronomical Twilight 6:15 AM EDT 8:21 PM EDT
Moon 4:55 PM EDT (10/15) 4:10 AM EDT (10/15)
Length of Visible Light 12h 14m
Length of Day
11h 25m
Waxing Gibbous, 87% of the Moon is Illuminated
Oct 15
Waxing Gibbous
Oct 18
Full
Oct 26
Last Quarter
Nov 3
New
Nov 10
First Quarter

Hourly Weather History & Observations

Time (EDT) Temp. Dew Point Humidity Pressure Visibility Wind Dir Wind Speed Gust Speed Precip Events Conditions
12:53 AM 70.0 °F 62.1 °F 76% 30.09 in 10.0 mi NE 6.9 mph - N/A   Overcast
1:53 AM 70.0 °F 63.0 °F 78% 30.07 in 10.0 mi NE 8.1 mph - N/A   Overcast
2:53 AM 69.1 °F 62.1 °F 78% 30.07 in 10.0 mi NNE 8.1 mph - N/A   Partly Cloudy
3:53 AM 69.1 °F 62.1 °F 78% 30.07 in 10.0 mi NNE 6.9 mph - N/A   Overcast
4:17 AM 69.8 °F 62.6 °F 78% 30.05 in 10.0 mi NNE 8.1 mph - N/A   Overcast
4:53 AM 68.0 °F 62.1 °F 81% 30.06 in 10.0 mi NNE 9.2 mph - N/A   Overcast
5:53 AM 66.9 °F 62.1 °F 84% 30.06 in 10.0 mi NNE 6.9 mph - N/A   Mostly Cloudy
6:08 AM 68.0 °F 62.6 °F 83% 30.05 in 10.0 mi NE 8.1 mph - N/A   Overcast
6:53 AM 68.0 °F 62.1 °F 81% 30.07 in 10.0 mi NNE 8.1 mph - N/A   Overcast
7:53 AM 68.0 °F 62.1 °F 81% 30.08 in 10.0 mi NE 8.1 mph - N/A   Overcast
8:53 AM 69.1 °F 62.1 °F 78% 30.10 in 10.0 mi NNE 9.2 mph - 0.00 in   Overcast
9:53 AM 72.0 °F 61.0 °F 68% 30.09 in 10.0 mi NNE 11.5 mph - N/A   Overcast
10:48 AM 73.4 °F 62.6 °F 69% 30.07 in 10.0 mi NE 9.2 mph 18.4 mph N/A   Mostly Cloudy
10:53 AM 73.9 °F 62.1 °F 66% 30.09 in 10.0 mi NE 10.4 mph - N/A   Mostly Cloudy
11:53 AM 75.9 °F 61.0 °F 60% 30.09 in 10.0 mi NNE 8.1 mph - N/A   Overcast
12:53 PM 75.9 °F 61.0 °F 60% 30.07 in 10.0 mi NNE 9.2 mph - N/A   Overcast
1:53 PM 77.0 °F 62.1 °F 60% 30.05 in 10.0 mi NE 6.9 mph - N/A   Overcast
2:30 PM 77.0 °F 62.6 °F 61% 30.01 in 10.0 mi NE 9.2 mph - N/A   Overcast
2:53 PM 79.0 °F 61.0 °F 54% 30.02 in 10.0 mi NNE 9.2 mph - N/A   Overcast
3:53 PM 79.0 °F 61.0 °F 54% 30.01 in 10.0 mi NNE 8.1 mph - N/A   Overcast
4:53 PM 78.1 °F 62.1 °F 58% 30.01 in 10.0 mi ENE 6.9 mph - N/A   Overcast
5:53 PM 75.9 °F 62.1 °F 62% 30.02 in 10.0 mi NE 6.9 mph - N/A   Overcast
6:53 PM 75.0 °F 61.0 °F 62% 30.02 in 10.0 mi NNE 6.9 mph - N/A   Overcast
7:53 PM 72.0 °F 62.1 °F 71% 30.03 in 10.0 mi North 3.5 mph - N/A   Mostly Cloudy
8:53 PM 71.1 °F 62.1 °F 73% 30.04 in 10.0 mi Calm Calm - N/A   Mostly Cloudy
9:53 PM 68.0 °F 61.0 °F 78% 30.06 in 10.0 mi Calm Calm - N/A   Partly Cloudy
10:53 PM 69.1 °F 62.1 °F 78% 30.06 in 10.0 mi Calm Calm - N/A   Mostly Cloudy
11:53 PM 71.1 °F 61.0 °F 70% 30.05 in 10.0 mi North 6.9 mph - N/A   Overcast